Location: Beuerbach
(48.1459°N, 10.9174°E)
Time: 09:36:05
(UTC+00:00)

IRAS Rocket - Pass Details

Date: 23 May 2024
Orbit: 846 x 877 km, 100.1° (Epoch: 15 June)

Event Time Altitude Azimuth Distance (km) Brightness Sun altitude
Rises 02:14:54 0° 16° (NNE) 3,438 8.6 -10.1°
Reaches altitude 10° 02:17:17 10° 16° (NNE) 2,493 7.8 -9.8°
Maximum altitude 02:22:50 88° 288° (WNW) 856 4.2 -9.2°
Drops below altitude 10° 02:28:18 10° 199° (SSW) 2,464 6.1 -8.5°
Enters shadow 02:28:55 - 199° (SSW) 2,709 6.3 -8.5°
